Weather History for KSTC - September, 2013

Change the Weather History Date:

Saturday, September 28, 2013

  Actual Average Record
Temperature  
Mean Temperature 58 °F 53 °F  
Max Temperature 72 °F 65 °F 85 °F (1905)
Min Temperature 44 °F 41 °F 18 °F (1942)
Degree Days  
Heating Degree Days 7 12  
Month to date heating degree days 121 204  
Since 1 July heating degree days 170 262  
Cooling Degree Days 0 0  
Month to date cooling degree days 73 31  
Year to date cooling degree days 577 460  
Growing Degree Days 8 (Base 50)    
Moisture  
Dew Point 53 °F    
Average Humidity 77    
Maximum Humidity 93    
Minimum Humidity 61    
Precipitation  
Precipitation 0.16 in 0.09 in 1.02 in (1911)
Month to date precipitation 1.87 3.28  
Year to date precipitation 22.20 22.86  
Snow  
Snow 0.00 in 0.00 in T in (1908)
Month to date snowfall 0.0 0.0  
Since 1 July snowfall 0.0 0.0  
Since 1 September snowfall 0.0 0.0  
Snow Depth 0.00 in    
Sea Level Pressure  
Sea Level Pressure 29.74 in    
Wind  
Wind Speed 13 mph (SW)    
Max Wind Speed 28 mph    
Max Gust Speed 35 mph    
Visibility 8 miles    
Events Rain    
T = Trace of Precipitation, MM = Missing Value Source: NWS Daily Summary

Daily Weather History Graph

Daily Weather History Graph

Search for Another Location

Airport or City:

Trip Planner

Search our weather history database for the weather conditions in past years. The results will help you decide how hot, cold, wet, or windy it might be!

Date:

Astronomy

Sep. 28, 2013 Rise Set
Actual Time 7:11 AM CDT 7:01 PM CDT
Civil Twilight 6:41 AM CDT 7:31 PM CDT
Nautical Twilight 6:06 AM CDT 8:05 PM CDT
Astronomical Twilight 5:31 AM CDT 8:40 PM CDT
Moon 12:44 AM CDT (9/28) 3:35 PM CDT (9/28)
Length of Visible Light 12h 49m
Length of Day
11h 50m
Waning Crescent, 36% of the Moon is Illuminated
Sep 28
Waning Crescent
Oct 4
New
Oct 11
First Quarter
Oct 18
Full
Oct 26
Last Quarter

Hourly Weather History & Observations

Time (CDT) Temp. Windchill Dew Point Humidity Pressure Visibility Wind Dir Wind Speed Gust Speed Precip Events Conditions
12:53 AM 72.0 °F - 59.0 °F 64% 29.76 in 10.0 mi SSE 15.0 mph - N/A   Clear
1:53 AM 71.1 °F - 59.0 °F 66% 29.75 in 10.0 mi SSE 16.1 mph 26.5 mph N/A   Clear
2:53 AM 70.0 °F - 59.0 °F 68% 29.73 in 10.0 mi SSE 18.4 mph - N/A   Clear
3:53 AM 69.1 °F - 57.9 °F 68% 29.70 in 10.0 mi SSE 17.3 mph 24.2 mph N/A   Mostly Cloudy
4:53 AM 68.0 °F - 57.9 °F 70% 29.68 in 10.0 mi SSE 17.3 mph 24.2 mph N/A   Mostly Cloudy
5:53 AM 68.0 °F - 59.0 °F 73% 29.66 in 10.0 mi SSE 19.6 mph - N/A   Mostly Cloudy
6:53 AM 68.0 °F - 59.0 °F 73% 29.65 in 10.0 mi SSE 15.0 mph 23.0 mph N/A   Overcast
7:53 AM 66.0 °F - 59.0 °F 78% 29.64 in 6.0 mi SSE 23.0 mph 27.6 mph 0.00 in Rain Light Rain
8:53 AM 64.9 °F - 60.1 °F 84% 29.62 in 6.0 mi SSE 13.8 mph - 0.01 in Rain Light Rain
9:04 AM 64.4 °F - 60.8 °F 88% 29.61 in 3.0 mi SSE 15.0 mph - 0.01 in Rain Rain
9:53 AM 64.0 °F - 62.1 °F 93% 29.60 in 6.0 mi South 13.8 mph 21.9 mph 0.04 in   Overcast
10:19 AM 64.4 °F - 62.6 °F 94% 29.59 in 2.5 mi South 17.3 mph 24.2 mph 0.00 in Rain Light Rain
10:22 AM 64.4 °F - 62.6 °F 94% 29.62 in 1.8 mi SSW 20.7 mph 32.2 mph 0.00 in Rain Rain
10:28 AM 57.2 °F - 55.4 °F 94% 29.62 in 1.2 mi West 21.9 mph 32.2 mph 0.04 in Rain Rain
10:33 AM 55.4 °F - 53.6 °F 94% 29.63 in 2.5 mi WSW 21.9 mph 34.5 mph 0.04 in Rain Light Rain
10:40 AM 55.4 °F - 53.6 °F 94% 29.63 in 7.0 mi WSW 20.7 mph 27.6 mph 0.04 in Rain Light Rain
10:53 AM 54.0 °F - 52.0 °F 93% 29.67 in 6.0 mi West 21.9 mph 27.6 mph 0.04 in Rain Light Rain
11:21 AM 53.6 °F - 51.8 °F 94% 29.67 in 4.0 mi West 16.1 mph 23.0 mph 0.00 in Rain Light Rain
11:29 AM 53.6 °F - 51.8 °F 94% 29.68 in 3.0 mi West 18.4 mph - 0.01 in Rain Light Rain
11:53 AM 53.1 °F - 51.1 °F 93% 29.71 in 4.0 mi West 13.8 mph - 0.01 in Rain Rain
12:06 PM 53.6 °F - 50.0 °F 88% 29.70 in 2.0 mi West 17.3 mph 32.2 mph 0.03 in Rain Rain
12:13 PM 53.6 °F - 51.8 °F 94% 29.71 in 3.0 mi West 17.3 mph 32.2 mph 0.05 in Rain Rain
12:53 PM 53.1 °F - 51.1 °F 93% 29.74 in 10.0 mi West 11.5 mph - 0.05 in Rain Light Rain
1:16 PM 53.6 °F - 51.8 °F 94% 29.72 in 10.0 mi WNW 6.9 mph - 0.01 in Rain Light Rain
1:41 PM 55.4 °F - 51.8 °F 88% 29.73 in 10.0 mi West 13.8 mph - 0.01 in   Mostly Cloudy
1:50 PM 55.4 °F - 51.8 °F 88% 29.72 in 10.0 mi West 17.3 mph 23.0 mph 0.01 in   Overcast
1:53 PM 55.9 °F - 51.1 °F 84% 29.75 in 10.0 mi West 15.0 mph 23.0 mph 0.01 in   Overcast
2:53 PM 57.0 °F - 48.9 °F 74% 29.78 in 10.0 mi WSW 15.0 mph - N/A   Overcast
3:53 PM 57.0 °F - 48.0 °F 72% 29.81 in 10.0 mi West 16.1 mph 24.2 mph N/A   Overcast
4:18 PM 55.4 °F - 48.2 °F 77% 29.80 in 10.0 mi West 13.8 mph 24.2 mph N/A   Overcast
4:40 PM 57.2 °F - 48.2 °F 72% 29.80 in 10.0 mi West 16.1 mph - N/A   Overcast
4:53 PM 57.0 °F - 46.0 °F 67% 29.83 in 10.0 mi West 16.1 mph 25.3 mph N/A   Overcast
5:53 PM 57.0 °F - 46.0 °F 67% 29.86 in 10.0 mi West 9.2 mph - N/A   Mostly Cloudy
6:53 PM 55.0 °F - 42.1 °F 62% 29.89 in 10.0 mi West 11.5 mph 21.9 mph N/A   Clear
7:53 PM 52.0 °F - 43.0 °F 71% 29.93 in 10.0 mi West 5.8 mph - N/A   Clear
8:53 PM 48.0 °F - 44.1 °F 86% 29.93 in 10.0 mi Calm Calm - N/A   Clear
9:53 PM 46.9 °F - 44.1 °F 90% 29.93 in 10.0 mi SSE 3.5 mph - N/A   Clear
10:53 PM 45.0 °F 41.8 °F 42.1 °F 90% 29.95 in 10.0 mi South 5.8 mph - N/A   Clear
11:53 PM 45.0 °F 41.8 °F 43.0 °F 93% 29.95 in 10.0 mi South 5.8 mph - N/A   Clear